sat.trackr.live / text

‹ back to catalog

STARLINK-32458

NORAD 61962 · 2024-210D

PAYLOAD ACTIVE UNKNOWN

§ Identity

Operator
Country
US
Launch date
2024-11-14
Launch site
AFETR
Launch vehicle
Mass (kg)
RCS (m²)

Purposes: comms

External: N2YO · Heavens-Above · Gunter

§ Orbital elements

Epoch: 2026-05-24T23:34:21.019008Z

Period
94.27 min
Inclination
43.0005°
Eccentricity
0.0001124
Mean motion
15.27596846 rev/d
Perigee alt
482.2 km
Apogee alt
483.8 km
Semi-major
6,861.1 km
B*
5.5747e-4
RAAN
94.6226°
Arg perigee
249.7315°
Mean anomaly
110.3416°
Rev number
8,674

§ Raw data

STARLINK-324581 61962U 24210D   26144.98218772  .00015118  00000+0  55747-3 0  99902 61962  43.0005  94.6226 0001124 249.7315 110.3416 15.27596846 86740

JSON: /api/v1/satellites/61962 · /tle

For live sub-satellite position, see the globe view (requires WebGL).

§ Visibility from observer

Set your observer location to see the next 7 days of passes ≥ 10°. The values pass through the URL so the page stays shareable.

No JS? Fill the form by hand. The geolocation button needs JavaScript.